Worthington, MN

6:37 AM CDT on May 23, 2017 (GMT -0500)
Worthington Municipal

Weather History for KOTG - February, 2014

Change the Weather History Date:

Saturday, February 22, 2014

  Actual Average Record
Temperature  
Mean Temperature 14 °F -  
Max Temperature 19 °F 28 °F 61 °F (2017)
Min Temperature 8 °F 15 °F -7 °F (2015)
Degree Days  
Heating Degree Days 52    
Moisture  
Dew Point 3 °F    
Average Humidity 64    
Maximum Humidity 73    
Minimum Humidity 57    
Precipitation  
Precipitation 0.00 in - - ()
Sea Level Pressure  
Sea Level Pressure 30.00 in    
Wind  
Wind Speed 10 mph (WNW)    
Max Wind Speed 18 mph    
Max Gust Speed 17 mph    
Visibility 10 miles    
Events      
Averages and records for this station are not official NWS values.
T = Trace of Precipitation, MM = Missing Value Source: NWS Daily Summary

Daily Weather History Graph

Daily Weather History Graph

Search for Another Location

Airport or City:

Trip Planner

Search our weather history database for the weather conditions in past years. The results will help you decide how hot, cold, wet, or windy it might be!

Date:

Astronomy

Feb. 22, 2014 Rise Set
Actual Time 7:10 AM CST 6:02 PM CST
Civil Twilight 6:41 AM CST 6:31 PM CST
Nautical Twilight 6:07 AM CST 7:04 PM CST
Astronomical Twilight 5:34 AM CST 7:37 PM CST
Moon 1:11 AM CST (2/22) 11:08 AM CST (2/22)
Length of Visible Light 11h 49m
Length of Day
10h 51m
Waning Gibbous, 50% of the Moon is Illuminated
Feb 22
Waning Gibbous
Mar 1
New
Mar 8
First Quarter
Mar 16
Full
Mar 23
Last Quarter

Hourly Weather History & Observations

Time (CST) Temp. Windchill Dew Point Humidity Pressure Visibility Wind Dir Wind Speed Gust Speed Precip Events Conditions
12:15 AM 12.2 °F -0.2 °F -0.4 °F 57% 29.84 in 10.0 mi West 9.2 mph - N/A   Clear
12:35 AM 12.2 °F -1.0 °F -0.4 °F 57% 29.83 in 10.0 mi West 10.4 mph - N/A   Clear
12:55 AM 10.4 °F -4.1 °F -0.4 °F 62% 29.85 in 10.0 mi West 11.5 mph - N/A   Clear
1:15 AM 8.6 °F -1.3 °F -0.4 °F 67% 29.85 in 10.0 mi West 5.8 mph - N/A   Clear
1:35 AM 8.6 °F -1.3 °F -0.4 °F 67% 29.85 in 10.0 mi WNW 5.8 mph - N/A   Clear
1:55 AM 10.4 °F -2.4 °F -0.4 °F 62% 29.87 in 10.0 mi West 9.2 mph - N/A   Clear
2:15 AM 12.2 °F 1.7 °F -0.4 °F 57% 29.87 in 10.0 mi West 6.9 mph - N/A   Partly Cloudy
2:35 AM 12.2 °F 2.9 °F 1.4 °F 62% 29.86 in 10.0 mi West 5.8 mph - N/A   Partly Cloudy
2:55 AM 10.4 °F 0.8 °F 1.4 °F 67% 29.88 in 10.0 mi West 5.8 mph - N/A   Clear
3:15 AM 10.4 °F -1.5 °F -0.4 °F 62% 29.88 in 10.0 mi West 8.1 mph - N/A   Clear
3:35 AM 10.4 °F 2.2 °F -0.4 °F 62% 29.88 in 10.0 mi NNW 4.6 mph - N/A   Clear
3:55 AM 10.4 °F -3.3 °F -2.2 °F 57% 29.88 in 10.0 mi WNW 10.4 mph - N/A   Clear
4:15 AM 10.4 °F -2.4 °F -0.4 °F 62% 29.89 in 10.0 mi West 9.2 mph - N/A   Clear
4:35 AM 8.6 °F -3.7 °F -0.4 °F 67% 29.90 in 10.0 mi WNW 8.1 mph - N/A   Clear
4:55 AM 8.6 °F -2.6 °F -2.2 °F 62% 29.91 in 10.0 mi West 6.9 mph - N/A   Clear
5:15 AM 8.6 °F - -0.4 °F 67% 29.92 in 10.0 mi Calm Calm - N/A   Partly Cloudy
5:35 AM 8.6 °F 2.0 °F -0.4 °F 67% 29.93 in 10.0 mi West 3.5 mph - N/A   Mostly Cloudy
5:55 AM 10.4 °F -6.0 °F 1.4 °F 67% 29.92 in 10.0 mi WNW 15.0 mph - N/A   Overcast
6:15 AM 12.2 °F -2.5 °F 1.4 °F 62% 29.93 in 10.0 mi WNW 12.7 mph - N/A   Overcast
6:35 AM 12.2 °F -4.8 °F 1.4 °F 62% 29.94 in 10.0 mi WNW 17.3 mph - N/A   Overcast
6:55 AM 10.4 °F -4.8 °F 1.4 °F 67% 29.93 in 10.0 mi NW 12.7 mph - N/A   Mostly Cloudy
7:15 AM 8.6 °F -4.7 °F -0.4 °F 67% 29.95 in 10.0 mi WNW 9.2 mph - N/A   Partly Cloudy
7:35 AM 8.6 °F -6.3 °F -0.4 °F 67% 29.96 in 10.0 mi West 11.5 mph - N/A   Partly Cloudy
7:55 AM 8.6 °F -3.7 °F -0.4 °F 67% 29.96 in 10.0 mi West 8.1 mph - N/A   Clear
8:15 AM 8.6 °F -1.3 °F 1.4 °F 73% 29.98 in 10.0 mi West 5.8 mph - N/A   Clear
8:35 AM 10.4 °F -0.4 °F -0.4 °F 62% 29.99 in 10.0 mi WNW 6.9 mph - N/A   Clear
8:55 AM 10.4 °F -2.4 °F -0.4 °F 62% 29.99 in 10.0 mi WNW 9.2 mph - N/A   Clear
9:15 AM 10.4 °F -4.1 °F 1.4 °F 67% 29.99 in 10.0 mi West 11.5 mph - N/A   Clear
9:35 AM 12.2 °F -1.8 °F 1.4 °F 62% 29.99 in 10.0 mi WNW 11.5 mph - N/A   Clear
9:55 AM 12.2 °F -3.1 °F 1.4 °F 62% 29.99 in 10.0 mi WNW 13.8 mph - N/A   Clear
10:15 AM 12.2 °F -2.5 °F 1.4 °F 62% 30.00 in 10.0 mi West 12.7 mph - N/A   Clear
10:35 AM 12.2 °F -1.8 °F 1.4 °F 62% 30.01 in 10.0 mi WSW 11.5 mph - N/A   Clear
10:55 AM 14.0 °F -0.8 °F 1.4 °F 57% 30.02 in 10.0 mi West 13.8 mph 17.3 mph N/A   Clear
11:15 AM 12.2 °F -3.1 °F 1.4 °F 62% 30.01 in 10.0 mi West 13.8 mph - N/A   Clear
11:35 AM 14.0 °F -0.8 °F 1.4 °F 57% 30.02 in 10.0 mi West 13.8 mph - N/A   Clear
11:55 AM 14.0 °F -1.4 °F 1.4 °F 57% 30.02 in 10.0 mi West 15.0 mph - N/A   Clear
12:15 PM 15.8 °F 1.4 °F 3.2 °F 58% 30.02 in 10.0 mi West 13.8 mph - N/A   Clear
12:35 PM 15.8 °F 2.7 °F 3.2 °F 58% 30.02 in 10.0 mi WNW 11.5 mph - N/A   Clear
12:55 PM 15.8 °F 0.3 °F 3.2 °F 58% 30.01 in 10.0 mi WNW 16.1 mph - N/A   Clear
1:15 PM 17.6 °F 2.7 °F 5.0 °F 58% 30.01 in 10.0 mi WNW 16.1 mph - N/A   Clear
1:35 PM 17.6 °F 3.2 °F 6.8 °F 63% 30.01 in 10.0 mi WNW 15.0 mph - N/A   Clear
1:55 PM 17.6 °F 4.3 °F 6.8 °F 63% 30.00 in 10.0 mi WNW 12.7 mph - N/A   Clear
2:15 PM 17.6 °F 3.2 °F 6.8 °F 63% 30.01 in 10.0 mi West 15.0 mph - N/A   Clear
2:35 PM 19.4 °F 5.0 °F 6.8 °F 58% 30.01 in 10.0 mi WNW 16.1 mph - N/A   Clear
2:55 PM 19.4 °F 5.0 °F 6.8 °F 58% 30.01 in 10.0 mi WNW 16.1 mph - N/A   Clear
3:15 PM 19.4 °F 4.1 °F 6.8 °F 58% 30.02 in 10.0 mi WNW 18.4 mph - N/A   Clear
3:35 PM 19.4 °F 5.0 °F 8.6 °F 63% 30.02 in 10.0 mi WNW 16.1 mph - N/A   Clear
3:55 PM 19.4 °F 6.0 °F 8.6 °F 63% 30.03 in 10.0 mi WNW 13.8 mph - N/A   Clear
4:15 PM 19.4 °F 5.5 °F 8.6 °F 63% 30.03 in 10.0 mi WNW 15.0 mph - N/A   Clear
4:35 PM 19.4 °F 7.2 °F 8.6 °F 63% 30.03 in 10.0 mi NW 11.5 mph - N/A   Clear
4:55 PM 19.4 °F 8.6 °F 8.6 °F 63% 30.03 in 10.0 mi NW 9.2 mph - N/A   Clear
5:15 PM 19.4 °F 9.5 °F 8.6 °F 63% 30.04 in 10.0 mi NW 8.1 mph - N/A   Clear
5:35 PM 17.6 °F 8.2 °F 8.6 °F 68% 30.04 in 10.0 mi NW 6.9 mph - N/A   Clear
5:55 PM 17.6 °F 10.7 °F 6.8 °F 63% 30.06 in 10.0 mi WNW 4.6 mph - N/A   Clear
6:15 PM 15.8 °F 7.2 °F 6.8 °F 68% 30.07 in 10.0 mi WNW 5.8 mph - N/A   Clear
6:35 PM 15.8 °F 6.1 °F 6.8 °F 68% 30.07 in 10.0 mi West 6.9 mph - N/A   Clear
6:55 PM 15.8 °F 6.1 °F 6.8 °F 68% 30.08 in 10.0 mi WNW 6.9 mph - N/A   Clear
7:15 PM 15.8 °F 8.6 °F 6.8 °F 68% 30.08 in 10.0 mi WNW 4.6 mph - N/A   Clear
7:35 PM 15.8 °F 7.2 °F 6.8 °F 68% 30.09 in 10.0 mi WNW 5.8 mph - N/A   Clear
7:55 PM 14.0 °F 2.0 °F 5.0 °F 67% 30.09 in 10.0 mi NW 9.2 mph - N/A   Clear
8:15 PM 14.0 °F 1.2 °F 3.2 °F 62% 30.09 in 10.0 mi NW 10.4 mph - N/A   Clear
8:35 PM 12.2 °F -1.0 °F 3.2 °F 67% 30.11 in 10.0 mi WNW 10.4 mph - N/A   Clear
8:55 PM 12.2 °F -0.2 °F 3.2 °F 67% 30.11 in 10.0 mi WNW 9.2 mph - N/A   Clear
9:15 PM 12.2 °F -0.2 °F 3.2 °F 67% 30.13 in 10.0 mi WNW 9.2 mph - N/A   Clear
9:35 PM 12.2 °F -1.0 °F 3.2 °F 67% 30.14 in 10.0 mi WNW 10.4 mph - N/A   Clear
9:55 PM 12.2 °F -3.1 °F 3.2 °F 67% 30.14 in 10.0 mi NW 13.8 mph - N/A   Clear
10:15 PM 12.2 °F -2.5 °F 3.2 °F 67% 30.13 in 10.0 mi NW 12.7 mph - N/A   Clear
10:35 PM 10.4 °F -3.3 °F 1.4 °F 67% 30.14 in 10.0 mi WNW 10.4 mph - N/A   Mostly Cloudy
10:55 PM 10.4 °F -4.1 °F 1.4 °F 67% 30.15 in 10.0 mi WNW 11.5 mph - N/A   Mostly Cloudy
11:15 PM 10.4 °F -4.8 °F 1.4 °F 67% 30.15 in 10.0 mi WNW 12.7 mph - N/A   Partly Cloudy
11:35 PM 10.4 °F -5.4 °F 1.4 °F 67% 30.14 in 10.0 mi NW 13.8 mph - N/A   Clear
11:55 PM 10.4 °F -4.8 °F 1.4 °F 67% 30.15 in 10.0 mi NW 12.7 mph - N/A   Clear